Location: ??????
(31.2056°N, 45.3906°E)
Time: 19:54:49
(UTC+00:00)

Cosmos 2074 Rocket - Pass Details

Date: 09 April 2020
Orbit: 968 x 986 km, 82.9° (Epoch: 27 May)

Event Time Altitude Azimuth Distance (km) Brightness Sun altitude
Rises 16:16:35 0° 356° (N) 3,693 7.3 -11.9°
Reaches altitude 10° 16:19:07 10° 359° (N) 2,744 6.6 -12.5°
Maximum altitude 16:25:24 73° 83° (E) 1,026 4.0 -13.7°
Drops below altitude 10° 16:31:40 10° 169° (S) 2,732 6.1 -15.0°
Sets 16:34:11 0° 171° (S) 3,676 6.7 -15.5°
